Погода на Бору

Россия / Нижегородская область     56°21′23″N   44°03′52″E
темп.,
°C
ветер,
м/с
пор.,
м/с
влажн.,
%
обл.,
%
осадки,
мм/ч
давл.,
гПа
погр.,
м
18 мая, вт
вт1800:00+19юв388924 0.1 1015159
03:00+17юв258483 0.1 1015114
06:00+18вюв397730 0.1 1016258
09:00+23вюв5760100 0.1 1016479
12:00+26юв574932 0.0 1016989
15:00+27юв57475 0.0 10151193
18:00+26вюв59595 0.0 1014808
21:00+22вюв514713 0.0 1014466
19 мая, ср
ср1900:00+19вюв513805 0.0 1014389
03:00+17вюв413843 0.0 1014330
06:00+18вюв413785 0.0 1015375
09:00+23вюв610615 0.0 1014608
12:00+26вюв710530 0.0 10141074
15:00+26вюв711530 0.0 10131419
18:00+24вюв612630 0.0 1013899
21:00+20вюв615680 0.0 1013551
20 мая, чт
чт2000:00+19вюв515660 0.0 1013484
03:00+18юв414700 0.0 1013493
06:00+18юв412720 0.0 1013511
09:00+22юв69620 0.0 1013837
12:00+25юв811530 0.0 10121492
15:00+25юв81255100 0.1 10111900
18:00+20ююв8147486 1.0 10111239
21:00+14ююв5108418 1.4 1013637
21 мая, пт
пт2100:00+13ююв4128942 0.0 1013389
03:00+12юв4119313 0.0 1012367
06:00+14ююв5118721 0.0 1012508
09:00+18ю7116674 0.1 10131352
12:00+20ююз8125194 0.0 10141699
15:00+20юз71149100 0.0 10151806
18:00+17юз6116239 0.0 10151379
21:00+14юз4117562 0.1 1018885
22 мая, сб
сб2200:00+12зюз4979100 0.0 1019592
03:00+10юз2584100 0.0 1020249
06:00+12зюз2378100 0.0 1022267
09:00+11ю1295100 5.4 1022207
12:00+11ю1294100 5.4 1023259
15:00+12в2293100 8.2 1022212
18:00+14в3690100 0.3 1020384
21:00+13в41098100 3.3 1018379